[[{"header":{"parameterUnit":"m.s-1","parameterCategory":1,"la1":30.2991,"la2":30.254,"lo1":-89.0895,"lo2":-89.0444,"dy":0.0017,"dx":0.0017,"nx":28,"ny":28,"refTime":"2025-05-01T09:00:00:Z","depth":0,"parameterNumber":2,"parameterNumberName":"U-component_of_WINDS"},"data":[0,0,0,0,0,0,0,0,0,0,0,0,0,0,0,0,0,0,0,0,0,0,0,0,0,0,0,0,0,0,0,0,0,0,0,0,0,0,0,0,0,0,0,0,0,0,0,0,0,0,0,0,0,0,0,0,0,0,-1.1552,-1.1553,0,-1.1636,-1.1637,-1.1638,-1.1662,-1.1662,-1.1661,-1.1661,-1.1746,-1.1749,-1.1751,0,0,0,0,0,0,0,0,0,0,0,0,0,-1.141,-1.1413,-1.1552,-1.1553,-1.1554,-1.1636,-1.1637,-1.1638,-1.1662,-1.1662,-1.1661,-1.166,-1.1745,-1.1748,-1.1752,0,0,0,0,0,0,0,0,0,0,0,0,0,-1.1481,-1.1413,-1.1551,-1.1576,-1.1579,-1.1636,-1.1637,-1.1639,-1.1662,-1.1662,-1.1661,-1.166,-1.1744,-1.1748,-1.1752,-1.1791,0,0,-1.1764,-1.1766,0,0,0,0,0,0,0,0,-1.1477,-1.1486,-1.1571,-1.1574,-1.1577,-1.1638,-1.1619,-1.169,-1.1662,-1.163,-1.1661,-1.166,-1.171,-1.1717,-1.1735,-1.1795,-1.1799,-1.1765,-1.1767,-1.1769,-1.177,0,0,0,0,0,0,0,-1.1472,-1.1482,-1.1585,-1.1572,-1.1576,-1.1582,-1.1591,-1.1632,-1.1673,-1.1633,-1.1635,-1.1645,-1.1712,-1.1731,-1.1737,-1.18,-1.1765,-1.1768,-1.1771,-1.1772,-1.1896,-1.1897,0,0,0,0,0,0,-1.1463,-1.1478,-1.1582,-1.1588,-1.1524,-1.1585,-1.1595,-1.1619,-1.1673,-1.168,-1.1645,-1.1646,-1.1724,-1.1732,-1.174,-1.1789,-1.1769,-1.1773,-1.1775,-1.1896,-1.1897,-1.1898,0,0,0,0,0,0,-1.146,-1.1472,-1.1579,-1.1534,-1.1548,-1.1588,-1.1615,-1.1621,-1.164,-1.1682,-1.1689,-1.1657,-1.1724,-1.1734,-1.1778,-1.1792,-1.1775,-1.1778,-1.1895,-1.1896,-1.1897,-1.1888,0,0,0,0,0,0,-1.1456,-1.1471,-1.1486,-1.1534,-1.155,-1.1616,-1.1616,-1.1623,-1.1647,-1.1648,-1.1695,-1.1702,-1.1724,-1.1772,-1.1782,-1.1798,-1.1781,-1.1894,-1.1895,-1.1897,-1.1887,-1.1889,-1.189,0,0,0,0,0,-1.145,-1.148,-1.1487,-1.1499,-1.157,-1.1617,-1.1626,-1.1651,-1.1648,-1.1664,-1.1691,-1.17,-1.1789,-1.1776,-1.1788,-1.1805,-1.1893,-1.1895,-1.1897,-1.1886,-1.1888,-1.189,0,0,0,0,0,0,-1.1432,-1.1486,-1.1495,-1.154,-1.1574,-1.1621,-1.1641,-1.1653,-1.1688,-1.1687,-1.1717,-1.1727,-1.1769,-1.1791,-1.1776,-1.1846,-1.1841,-1.1846,-1.1829,-1.1832,-1.1833,-1.1827,-1.1785,0,0,0,0,0,-1.1434,-1.1468,-1.1513,-1.1549,-1.1565,-1.16,-1.1622,-1.1638,-1.1674,-1.1688,-1.1719,-1.1753,-1.1789,-1.1811,-1.1846,-1.189,-1.1901,-1.1908,-1.1909,-1.191,-1.1914,-1.1939,-1.1942,-1.1904,-1.1904,-1.1904,0,0,-1.1437,-1.1471,-1.149,-1.1546,-1.1574,-1.1608,-1.1612,-1.1648,-1.1674,-1.1694,-1.1737,-1.1761,-1.1801,-1.1845,-1.1866,-1.1865,-1.1927,-1.1913,-1.1913,-1.1916,-1.1941,-1.1945,-1.1948,-1.1905,-1.1905,-1.1905,0,0,-1.146,-1.1489,-1.1522,-1.155,-1.1593,-1.1616,-1.1624,-1.1669,-1.1686,-1.173,-1.1746,-1.1777,-1.1837,-1.1865,-1.1887,-1.1921,-1.1931,-1.1932,-1.1939,-1.1963,-1.1966,-1.1969,-1.1981,-1.1985,-1.1935,-1.1935,-1.1935,0,-1.1458,-1.1511,-1.1538,-1.1573,-1.1597,-1.1617,-1.1651,-1.1677,-1.1728,-1.1744,-1.1743,-1.182,-1.1848,-1.1899,-1.1907,-1.1924,-1.1934,-1.1926,-1.1964,-1.1967,-1.197,-1.1982,-1.1986,-1.1935,-1.1935,-1.1935,-1.1935,0,-1.1507,-1.1543,-1.1564,-1.1614,-1.1641,-1.1675,-1.1707,-1.1731,-1.1745,-1.1768,-1.1813,-1.1848,-1.189,-1.1904,-1.1918,-1.1957,-1.1955,-1.1958,-1.1954,-1.1973,-1.1985,-1.1989,-1.1934,-1.1935,-1.1935,-1.1935,0,0,-1.1521,-1.1585,-1.1593,-1.1615,-1.1664,-1.1692,-1.1727,-1.1769,-1.1789,-1.1824,-1.1854,-1.1905,-1.1909,-1.1934,-1.1951,-1.1972,-1.1997,-1.1973,-1.1974,-1.1976,-1.2042,-1.2039,-1.2044,-1.2004,-1.2005,-1.2006,-1.2038,0,-1.155,-1.1614,-1.1639,-1.1691,-1.1725,-1.1745,-1.1775,-1.1808,-1.1831,-1.1863,-1.1888,-1.1923,-1.1925,-1.194,-1.1962,-1.1989,-1.201,-1.1987,-1.2032,-1.2033,-1.2021,-1.205,-1.2047,-1.2076,-1.2043,-1.2044,-1.2044,0,-1.1593,-1.1628,-1.1684,-1.1728,-1.1743,-1.177,-1.1811,-1.1841,-1.1879,-1.1894,-1.1922,-1.1938,-1.1976,-1.1969,-1.2021,-1.2005,-1.2025,-1.2041,-1.2042,-1.2047,-1.204,-1.2056,-1.2086,-1.2091,-1.2052,-1.2051,-1.2051,0,-1.1597,-1.1659,-1.17,-1.1719,-1.1772,-1.1791,-1.1814,-1.1851,-1.1874,-1.191,-1.1926,-1.1964,-1.1986,-1.2015,-1.2042,-1.2035,-1.2091,-1.2087,-1.2104,-1.2104,-1.2115,-1.2114,-1.2149,-1.2128,-1.2128,-1.2128,-1.2127,0,-1.1627,-1.166,-1.1703,-1.1729,-1.1766,-1.1795,-1.1831,-1.1855,-1.1888,-1.1918,-1.1938,-1.1965,-1.1998,-1.203,-1.2051,-1.2091,-1.21,-1.2113,-1.2118,-1.2111,-1.211,-1.2125,-1.2123,-1.2129,-1.2129,-1.2128,-1.2128,0,-1.1639,-1.1669,-1.1715,-1.1762,-1.1774,-1.18,-1.1839,-1.1865,-1.1888,-1.1926,-1.1937,-1.1974,-1.2012,-1.2042,-1.2091,-1.2105,-1.2147,-1.2153,-1.2135,-1.2138,-1.2153,-1.2151,-1.2199,-1.2207,-1.218,-1.218,-1.218,0,-1.1656,-1.1682,-1.1731,-1.1753,-1.1776,-1.1811,-1.1835,-1.1864,-1.1889,-1.1934,-1.1954,-1.1994,-1.2027,-1.2088,-1.2119,-1.2157,-1.2164,-1.2178,-1.217,-1.2162,-1.2164,-1.2162,-1.2165,-1.2179,-1.2179,-1.2179,-1.2179,0,-1.1684,-1.1697,-1.1732,-1.1772,-1.1801,-1.1833,-1.1867,-1.1883,-1.1918,-1.1945,-1.1985,-1.2011,-1.2062,-1.2102,-1.2143,-1.2166,-1.2178,-1.2182,-1.2188,-1.2181,-1.217,-1.2176,-1.2138,-1.2181,-1.218,-1.218,-1.218,-1.218,-1.1699,-1.1723,-1.1761,-1.1799,-1.1827,-1.1858,-1.1884,-1.1911,-1.1945,-1.199,-1.2004,-1.2046,-1.2082,-1.214,-1.2163,-1.2195,-1.2195,-1.2204,-1.2206,-1.2208,-1.2207,-1.2165,-1.2203,-1.2203,-1.2203,-1.2203,-1.2203,0,-1.1727,-1.1753,-1.1788,-1.1834,-1.1864,-1.1873,-1.191,-1.1935,-1.1971,-1.2004,-1.2037,-1.2083,-1.2121,-1.2155,-1.2195,-1.2215,-1.2221,-1.2224,-1.2223,-1.2228,-1.2205,-1.2196,-1.2218,-1.2218,-1.2218,-1.2218,-1.2218,-1.2218,-1.1746,-1.1787,-1.1805,-1.1861,-1.1886,-1.1927,-1.1948,-1.1976,-1.2003,-1.2053,-1.2085,-1.2108,-1.2141,-1.2184,-1.2219,-1.2228,-1.2242,-1.2243,-1.2253,-1.2231,-1.223,-1.2228,-1.2219,-1.2246,-1.2246,-1.2274,-1.2274,-1.2274]},{"header":{"parameterUnit":"m.s-1","parameterCategory":1,"la1":30.2991,"la2":30.254,"lo1":-89.0895,"lo2":-89.0444,"dy":0.0017,"dx":0.0017,"nx":28,"ny":28,"refTime":"2025-05-01T09:00:00:Z","depth":0,"parameterNumber":3,"parameterNumberName":"V-component_of_WINDS"},"data":[0,0,0,0,0,0,0,0,0,0,0,0,0,0,0,0,0,0,0,0,0,0,0,0,0,0,0,0,0,0,0,0,0,0,0,0,0,0,0,0,0,0,0,0,0,0,0,0,0,0,0,0,0,0,0,0,0,0,3.2966,3.2966,0,3.2968,3.2968,3.2968,3.2926,3.2925,3.2924,3.2923,3.2924,3.2925,3.2926,0,0,0,0,0,0,0,0,0,0,0,0,0,3.2924,3.2925,3.2966,3.2966,3.2966,3.2968,3.2968,3.2968,3.2926,3.2925,3.2923,3.2922,3.2923,3.2925,3.2926,0,0,0,0,0,0,0,0,0,0,0,0,0,3.2936,3.2926,3.2966,3.2945,3.2943,3.2968,3.2968,3.2968,3.2926,3.2925,3.2923,3.2921,3.2923,3.2925,3.2926,3.297,0,0,3.2931,3.2932,0,0,0,0,0,0,0,0,3.2935,3.2937,3.2948,3.2947,3.2945,3.2945,3.2953,3.2968,3.2927,3.2933,3.2923,3.2921,3.2932,3.2933,3.2937,3.297,3.297,3.2931,3.2932,3.2933,3.2933,0,0,0,0,0,0,0,3.2935,3.2937,3.2966,3.2948,3.2946,3.2935,3.2935,3.2956,3.2942,3.2932,3.2929,3.293,3.2931,3.2935,3.2937,3.297,3.2931,3.2933,3.2934,3.2934,3.3036,3.3037,0,0,0,0,0,0,3.2937,3.2937,3.2966,3.2966,3.2936,3.2937,3.2937,3.2946,3.2941,3.2939,3.2931,3.2928,3.2933,3.2935,3.2936,3.2985,3.2933,3.2934,3.2935,3.3034,3.3036,3.3038,0,0,0,0,0,0,3.2936,3.294,3.2966,3.2951,3.2953,3.294,3.2951,3.2947,3.2952,3.2941,3.2938,3.2939,3.2932,3.2934,3.2961,3.2984,3.2935,3.2937,3.3032,3.3035,3.3037,3.3084,0,0,0,0,0,0,3.2935,3.294,3.2957,3.2951,3.2954,3.2992,3.2952,3.2949,3.2955,3.295,3.2947,3.2945,3.2931,3.2959,3.2963,3.2986,3.2938,3.303,3.3033,3.3036,3.308,3.3087,3.3094,0,0,0,0,0,3.2934,3.297,3.2958,3.2962,3.2975,3.2993,3.2995,3.2978,3.2957,3.2973,3.2966,3.2945,3.2982,3.2962,3.2966,3.299,3.3028,3.3032,3.3036,3.3077,3.3086,3.3094,0,0,0,0,0,0,3.2979,3.2969,3.2955,3.2991,3.2993,3.2986,3.3006,3.2989,3.2997,3.2992,3.2971,3.2971,3.3001,3.2998,3.2977,3.303,3.3001,3.3006,3.3031,3.3039,3.3046,3.3045,3.2939,0,0,0,0,0,3.2993,3.3009,3.2999,3.3032,3.3034,3.302,3.3027,3.3014,3.3015,3.3016,3.301,3.3012,3.3023,3.3032,3.3042,3.308,3.3077,3.3098,3.3105,3.3111,3.3115,3.3132,3.3141,3.3051,3.3051,3.3051,0,0,3.3022,3.3019,3.303,3.3041,3.3041,3.3056,3.3021,3.304,3.3051,3.3019,3.3043,3.3039,3.3039,3.3071,3.3085,3.307,3.3139,3.3116,3.3121,3.3121,3.3137,3.3146,3.3153,3.3053,3.3053,3.3052,0,0,3.3083,3.3083,3.3109,3.311,3.311,3.31,3.3107,3.3102,3.3098,3.3122,3.3098,3.311,3.3132,3.3132,3.3135,3.3195,3.3175,3.3199,3.3235,3.3252,3.3259,3.3265,3.3284,3.3292,3.3203,3.3203,3.3203,0,3.3119,3.3142,3.3125,3.3144,3.3149,3.312,3.3146,3.3147,3.3151,3.3154,3.3137,3.3162,3.316,3.3191,3.3205,3.3209,3.3214,3.3198,3.326,3.3265,3.3271,3.3289,3.3296,3.3206,3.3205,3.3205,3.3205,0,3.3186,3.3202,3.3223,3.3226,3.3234,3.3256,3.3241,3.325,3.3236,3.3228,3.3252,3.3249,3.3257,3.3264,3.3251,3.3292,3.3282,3.3263,3.3233,3.3282,3.3299,3.3306,3.321,3.3209,3.3208,3.3207,0,0,3.3275,3.3267,3.3275,3.3275,3.3273,3.3285,3.3306,3.3313,3.332,3.3324,3.3339,3.3357,3.3339,3.3342,3.3329,3.3345,3.3389,3.3323,3.3323,3.3333,3.3432,3.3445,3.3453,3.3377,3.3378,3.3379,3.3431,0,3.3332,3.3367,3.3351,3.3387,3.34,3.3373,3.3391,3.3391,3.3383,3.3393,3.3385,3.3397,3.3373,3.3375,3.3389,3.3381,3.3408,3.3377,3.3389,3.339,3.3388,3.3462,3.3476,3.3525,3.3437,3.3438,3.3439,0,3.3404,3.3409,3.3446,3.3439,3.3444,3.3461,3.3465,3.3476,3.3475,3.3468,3.3471,3.3454,3.3473,3.3444,3.3468,3.3447,3.3451,3.3448,3.3449,3.3448,3.3416,3.3461,3.3541,3.3547,3.345,3.3449,3.3448,0,3.3462,3.3479,3.3503,3.3504,3.3497,3.3509,3.3507,3.3504,3.3509,3.3513,3.3515,3.3522,3.3525,3.353,3.3515,3.3496,3.354,3.3511,3.3534,3.3534,3.3543,3.3542,3.3623,3.355,3.355,3.3549,3.3549,0,3.3527,3.355,3.3528,3.3543,3.3567,3.3549,3.3573,3.3568,3.3565,3.3578,3.3555,3.3567,3.3547,3.3556,3.3544,3.3565,3.3567,3.3561,3.3557,3.3562,3.3563,3.3563,3.3559,3.3551,3.3551,3.3551,3.355,0,3.3596,3.3583,3.3606,3.3597,3.3596,3.3614,3.3606,3.3618,3.3609,3.3625,3.3627,3.3613,3.3623,3.3608,3.3617,3.3609,3.3637,3.3629,3.3637,3.3634,3.3657,3.3654,3.3738,3.3748,3.3671,3.3672,3.3672,0,3.3637,3.3654,3.3647,3.3653,3.3651,3.3662,3.3667,3.3649,3.3654,3.3653,3.3665,3.3673,3.3678,3.3695,3.3685,3.3691,3.3682,3.3711,3.3682,3.3686,3.3679,3.3678,3.3678,3.3716,3.3717,3.3718,3.3719,0,3.3711,3.3703,3.371,3.3715,3.3721,3.3724,3.3725,3.3731,3.3712,3.3719,3.3729,3.3733,3.3741,3.3748,3.3751,3.3748,3.373,3.3728,3.3733,3.3737,3.374,3.3736,3.365,3.3726,3.3725,3.3724,3.3724,3.3724,3.3765,3.3778,3.3774,3.3783,3.3782,3.3783,3.3793,3.3785,3.3793,3.3797,3.3786,3.3798,3.3795,3.3797,3.3796,3.3804,3.3791,3.3799,3.3801,3.3803,3.3805,3.374,3.3805,3.3804,3.3804,3.3804,3.3804,0,3.3836,3.3832,3.384,3.3841,3.3848,3.383,3.383,3.3836,3.3847,3.3845,3.385,3.386,3.3867,3.3857,3.3862,3.387,3.3862,3.3872,3.387,3.3869,3.3818,3.3811,3.3879,3.3879,3.3879,3.3879,3.3878,3.3878,3.3873,3.3893,3.3884,3.3903,3.3898,3.3909,3.391,3.3911,3.3909,3.3921,3.3926,3.392,3.3915,3.3919,3.3924,3.3921,3.3922,3.3935,3.3929,3.3881,3.3873,3.3866,3.386,3.3936,3.3936,3.3979,3.398,3.398]}]]